Weather in Gorny

Russia / Novgorod Oblast     58°57′34″N   33°49′44″E
temp.,
°C
wind,
m/s
gust,
m/s
humid.,
%
clouds,
%
prec.,
mm/h
press.,
hPa
HPBL,
m
23 october, sat
sat2300:00+4sw71674100 0.1 9901475
03:00+3sw6138689 0.1 9921034
06:00+2sw5148794 0.0 992660
09:00+2sw4119026 0.0 994624
12:00+4wsw4985100 0.0 997765
15:00+3wsw3895100 0.1 999598
18:00+3wsw2797100 0.6 1002604
21:00+3w3697100 1.0 1004544
24 october, sun
sun2400:00+2nnw3697100 0.4 1006434
03:00+1nnw4996100 0.8 1009534
06:000nnw51096100 0.8 1012650
09:000nnw51186100 0.9 1015697
12:00+1nnw487866 0.0 1018952
15:00+2nnw48735 0.1 10201163
18:00−1nw398113 0.0 1023514
21:00−2wnw268952 0.0 1025201
25 october, mon
mon2500:00−2w249046 0.0 1026147
03:00−2sw2787100 0.0 1026250
06:00−1ssw3983100 0.0 1024417
09:00−1s51495100 0.6 1022514
12:00+1ssw51496100 2.4 1020669
15:00+3sw51493100 3.1 1018804
18:00+4wsw51290100 0.1 10181011
21:00+4wsw51393100 0.3 1017748
26 october, tue
tue2600:00+3sw5139378 0.0 1017578
03:00+2sw4139566 0.0 1017455
06:00+1sw41296100 0.0 1016401
09:000sw41196100 0.0 1016385
12:00+3sw41088100 0.0 1015435
15:00+3sw41086100 0.0 1014517
18:00+2sw31193100 0.0 1014404
21:00+2sw41293100 0.0 1013445
27 october, wed
wed2700:00+2sw31195100 0.0 1012385
03:00+2ssw41195100 0.0 1009401
06:00+3sw41298100 1.2 1008528
09:00+4wsw41298100 2.6 1007609
12:00+5wsw41190100 0.3 1007748
15:00+5w4991100 0.9 10071008
18:00+5wsw51290100 0.3 10081120
21:00+5wnw51195100 2.3 1009959